This is the latest recevied weather packets stored in our database for station/object BM1CKC-10. If no packets are shown the sender has not sent any weather packets the latest 10 day(s).
| Time | Temp. | Humidity | Pressure | Rain* | Wind** | Luminosity | Snow |
|---|---|---|---|---|---|---|---|
| 1777487399 | 25° C | 58% | 1007.4 hPa | - | - | - | - |
| 1777486198 | 25° C | 57% | 1007.4 hPa | - | - | - | - |
| 1777484998 | 25.56° C | 57% | 1007.4 hPa | - | - | - | - |
| 1777483799 | 25.56° C | 57% | 1007.5 hPa | - | - | - | - |
| 1777482598 | 25.56° C | 57% | 1007.7 hPa | - | - | - | - |
| 1777481398 | 25° C | 57% | 1007.9 hPa | - | - | - | - |
| 1777480198 | 25° C | 55% | 1008 hPa | - | - | - | - |
| 1777478998 | 25° C | 53% | 1007.8 hPa | - | - | - | - |
| 1777477798 | 25° C | 56% | 1008 hPa | - | - | - | - |
| 1777476599 | 25° C | 52% | 1007.9 hPa | - | - | - | - |
| 1777475399 | 25° C | 53% | 1007.9 hPa | - | - | - | - |
| 1777474198 | 26.11° C | 51% | 1007.8 hPa | - | - | - | - |
| 1777472998 | 26.11° C | 49% | 1007.7 hPa | - | - | - | - |
| 1777471797 | 29.44° C | 59% | 1007.8 hPa | - | - | - | - |
| 1777470598 | 29.44° C | 60% | 1007.6 hPa | - | - | - | - |
| 1777469398 | 29.44° C | 60% | 1007.3 hPa | - | - | - | - |
| 1777468198 | 29.44° C | 60% | 1007.1 hPa | - | - | - | - |
| 1777467006 | 29.44° C | 61% | 1007.1 hPa | - | - | - | - |
| 1777465799 | 29.44° C | 61% | 1007 hPa | - | - | - | - |
| 1777464598 | 29.44° C | 61% | 1006.9 hPa | - | - | - | - |
| 1777463398 | 29.44° C | 61% | 1006.5 hPa | - | - | - | - |
| 1777462198 | 29.44° C | 61% | 1006.1 hPa | - | - | - | - |
| 1777460999 | 29.44° C | 61% | 1005.5 hPa | - | - | - | - |
| 1777459798 | 29.44° C | 59% | 1005.1 hPa | - | - | - | - |
| 1777458598 | 29.44° C | 60% | 1004.9 hPa | - | - | - | - |
* Rain since midnight (hover to see other rain measurements)
** Current wind speed in m/s (hover to see current wind gust speed)